Regional Weather Roundup
Issued by NWS Newport/Morehead, NC

Current Version | Previous Version | Text Only | Print | Product List | Glossary Off
Versions: 1 2 3 4 5 6 7 8 9 10 11 12 13 14 15 16 17 18 19 20 21 22 23 24 25 26 27 28 29 30 31 32 33 34 35 36 37 38 39 40 41 42 43 44 45 46 47 48 49 50
663 ASUS42 KMHX 230014 RWRMHX WEATHER ROUNDUP FOR EASTERN NORTH CAROLINA NATIONAL WEATHER SERVICE NEWPORT/MOREHEAD CITY NC 700 PM EST MON JAN 22 2018 NOTE: "FAIR" INDICATES FEW OR NO CLOUDS BELOW 12,000 FEET WITH NO SIGNIFICANT WEATHER AND/OR OBSTRUCTIONS TO VISIBILITY NCZ015>017-031-032-045>047-102-103-230100- NORTH COAST CITY SKY/WX TMP DP RH WIND PRES REMARKS EDENTON FAIR 58 48 71 S7 30.12S ELIZABETH CITY MOCLDY 57 52 83 S7 30.13R KITTY HAWK FAIR 57 47 69 CALM 30.12S MANTEO FAIR 52 46 78 S5 30.14S $$ NCZ045>047-081-094-103-104-230100- CENTRAL COAST CITY SKY/WX TMP DP RH WIND PRES REMARKS FRISCO NOT AVBL $$ NCZ095-097-098-100-101-230100- SOUTHERN COAST CITY SKY/WX TMP DP RH WIND PRES REMARKS BEAUFORT FAIR 61 56 83 S9 30.13F CEDAR ISLAND NOT AVBL JACKSONVILLE MOCLDY 54 54 100 CALM 30.11F PINEY ISLAND NOT AVBL WILMINGTON MOCLDY 54 53 97 CALM 30.11F $$ NCZ011>013-027>030-043-044-078>080-089-090>093-098-230100- COASTAL PLAIN CITY SKY/WX TMP DP RH WIND PRES REMARKS AHOSKIE FAIR 51 46 84 CALM 30.10F CLINTON FAIR 59 55 88 SE3 30.09F ELIZABETHTOWN NOT AVBL GOLDSBORO FAIR 60 53 75 SE6 30.07F GREENVILLE FAIR 61 52 72 S6 30.12F HAVELOCK NOT AVBL KENANSVILLE MOCLDY 59 55 88 SE5 30.10F KINSTON NOT AVBL NEW BERN FAIR 58 53 84 S5 30.13F RICHLANDS CLOUDY 56 55 97 S3 30.12F ROCKY MOUNT FAIR 57 47 69 S5 30.08F WASHINGTON FAIR 59 51 73 CALM 30.12S WHITEVILLE CLOUDY 59 58 97 CALM 30.09F FOG $$ AMZ130-135-150-152-154-156-158-170-250-252-270-ANZ085-086-088-633-658-670-230100- MARINE OBSERVATIONS STATION/POSITION TIME TEMP WIND PRES WAVE SWELL AIR SEA DIR/SP/G HT/PER HT/PER (UTC) (F) (DEG/KT/KT) (MB) (FT/S) (FT/S) CHESAPEAKE LIGHT NOT AVBL 64 E VA BEACH 2350 60 59 170/ 10/ 10 1020.9 1/10 2/10 DUCK 2336 47 42 150/ 9/ 10 1019.8 2 E DUCK 0000 42 N/A 1/11 OREGON INLET 2348 120/ 5/ 6 1020.5 13E OREGON INLT 2348 42 N/A 1/10 2/10 HATTERAS CG 2336 63 52 170/ 5/ 7 1020.4 DIAMOND BUOY 2350 69 72 190/ 12/ 14 1021.3 1/10 2/10 CAPE LOOKOUT 0000 160/ 4/ 5 1020.8 BEAUFORT LAB 2336 58 48 140/ 5/ 6 1020.4 30 SE NEW RVR IN 2308 62 58 280/ 2/ 4 1020.7 30 SE NEW RVR IN 0000 58 N/A 2/10 27 SE WRIGHTSVLE 2308 63 63 100/ 4/ 6 1020.2 5 SE WRIGHTSVLE 2308 49 47 80/ 6/ 8 1019.8 225 S CAPE HAT 2350 69 70 140/ 8/ 10 1022.9 2/ 9 2/ 9 41 SE CHARLESTON 0000 71 160/ 16/ 17 1018.6 $$

USA.gov is the U.S. government's official web portal to all federal, state and local government web resources and services.